Location: *
(46.1833°N, 22.7667°E)
Time: 17:41:58
(UTC+00:00)

HJ-1C - Pass Details

Date: 17 September 2019
Orbit: 434 x 449 km, 97.2° (Epoch: 23 October)

Event Time Altitude Azimuth Distance (km) Brightness Sun altitude
Rises 17:22:25 0° 161° (SSE) 2,431 6.8 -8.6°
Reaches altitude 10° 17:24:26 10° 159° (SSE) 1,568 5.8 -8.9°
Maximum altitude 17:27:46 69° 76° (ENE) 485 3.3 -9.5°
Drops below altitude 10° 17:31:10 10° 352° (N) 1,589 6.5 -10.0°
Sets 17:33:13 0° 350° (N) 2,468 7.5 -10.4°
